Location: Gro�wechsungen
(51.4926°N, 10.6901°E)
Time: 08:44:49
(UTC+00:00)

SPOT 3 Rocket - Pass Details

Date: 03 February 2021
Orbit: 780 x 794 km, 98.7° (Epoch: 24 February)

Event Time Altitude Azimuth Distance (km) Brightness Sun altitude
Exits shadow 17:59:40 16° 37° (NE) 1,966 5.2 -17.1°
Drops below altitude 10° 18:01:48 10° 14° (NNE) 2,355 5.8 -17.4°
Sets 18:04:54 0° 355° (N) 3,291 6.8 -17.9°
